ONEWEB-0181, 48230

Orbit data source: Space-Track

ONEWEB-0181, 48230 is a payload satellite owned by One Web (NAA) (UK) in LEO that was launched on Sun, 25 Apr 2021 UTC via a SOYUZ-2-1B launch vehicle from the Vostochny Cosmodrome (VOSTO). Payload-class satellites include a variety of spacecraft equipped with specific instruments for various scientific and technological missions. These include communications satellites like Starlink; space stations such as the ISS; scientific satellites like the Hubble; Earth observation satellites from companies like Planet Labs, Umbra, and HawkEye 360; GPS; miniature CubeSats for education and research; and military/defense satellites.

Loading next visibility...
Identifier
48230, 2021-031W
Orbit
LEO
Country
Flag of UKUK
Related business
Manufacturer
One Web
Mission
Operational Commercial Communications
Bus & Motor
ARROW, Unknown motor
Mass
148 kg wet, ~140 kg dry
Launch date (UTC)
2021-04-25 (5 years ago)
Launch vehicle
SOYUZ-2-1B
Launch site
Vostochny Cosmodrome (VOSTO)
Object type
Payload
Rocket body
Debris
Shape & HBR
Trap Box + 2 Pan, 6.7 m
Radar Cross Section
3.464 m², Large (>1 m²)

Expand to show TLE details & history
Last TLE update: 8 hours ago

TLE from 8 hours ago
0 ONEWEB-0181
1 48230U 21031W   26095.09797808  .00000271  00000-0  69674-3 0  9999
2 48230  87.8927 304.3219 0001719  79.4242 280.7081 13.14504475238630
Epoch: 2026-04-05T02:21Z
TLE epoch observation values (Epoch: 2026-04-05T02:21:05.306Z)
Latitude
-0.00003°
Longitude
75.64151°
Altitude
1,208.436 km
Speed
7.25 km/s
True Right ascension
20h 17m 17s
True Declination
0° 00' 00"
Sunlit
Object was in daylight at epoch
Visualization orbit readout
Latitude
Unknown
Longitude
Unknown
Altitude
Unknown
Speed
Unknown
Apparent Right ascension
Unknown
Apparent Declination
Unknown
Sunlit
N/A
Visualization observer readout
Local Sidereal Time
16:37:48
Azimuth
Unknown
Elevation
Unknown
Doppler factor
Unknown
Orbital elements
Apogee altitude
1,204.201 km
Perigee altitude
1,201.594 km
Semi-major axis
7,581.035 km
Eccentricity
0.00017
Inclination
87.8927°
RAAN
304.3219°
Arg. of periapsis
79.4242°
True anomaly
280.68874°
Mean anomaly
280.7081°
Eccentric anomaly
280.69842°
Mean motion
3.28814 °/min
Orbital period
109.48 mins
BSTAR
0.00069674
Loading maneuver chart data...
Computing Atmospheric mass density...
Loading historical data...
Loading historical data...
Loading historical data...
Loading historical data...
Loading historical data...
Loading historical data...
Loading historical data...

Documentation

Showing up to 5 results
|